Location: Castle Hill Houses
(40.8186°N, 73.8497°W)
Time: 05:13:33
(UTC+00:00)

Cosmos 2322 Rocket - Pass Details

Date: 26 January 2020
Orbit: 831 x 852 km, 71.0° (Epoch: 24 February)

Event Time Altitude Azimuth Distance (km) Brightness Sun altitude
Rises 10:51:39 0° 221° (SW) 3,384 5.1 -15.1°
Reaches altitude 10° 10:54:12 10° 228° (SW) 2,456 4.3 -14.7°
Maximum altitude 10:59:33 43° 300° (WNW) 1,167 2.5 -13.7°
Drops below altitude 10° 11:04:59 10° 11° (NNE) 2,483 4.6 -12.7°
Sets 11:07:34 0° 18° (NNE) 3,424 5.4 -12.2°
